[Iaude] MPEC T149: 2023 TF5 [a=1.36,e=0.34,i=19.4,H=22.2]
    mpec at marsden.cfa.harvard.edu 
    mpec at marsden.cfa.harvard.edu
       
    Wed Oct 11 02:08:20 EDT 2023
    
    
  
M.P.E.C. 2023-T149                             Issued 2023 October 11, 06:05 UT
     The Minor Planet Electronic Circulars contain information on unusual
         minor planets, routine data on comets and natural satellites,
         and occasional editorial announcements.  They are published
    on behalf of Division F of the International Astronomical Union by the
          Minor Planet Center, Smithsonian Astrophysical Observatory,
                          Cambridge, MA 02138, U.S.A.
			  
             Prepared using the Tamkin Foundation Computer Network
                              MPC at CFA.HARVARD.EDU
            URL https://www.minorplanetcenter.net/    ISSN 1523-6714
                                    2023 TF5                                    
Observations:
     K23T05F 1C2023 10 06.37324 01 27 15.72 +16 34 34.7          20.5 GVET149G96
     K23T05F 1C2023 10 06.37905 01 27 14.61 +16 34 45.4          21.0 GVET149G96
     K23T05F 1C2023 10 06.38488 01 27 13.52 +16 34 55.8          21.5 GVET149G96
     K23T05F* C2023 10 09.35380101 17 55.901+18 06 26.55         21.54wXET149F52
     K23T05F  C2023 10 09.36670401 17 53.211+18 06 51.12         21.17wXET149F52
     K23T05F  C2023 10 09.37958901 17 50.534+18 07 15.52         21.23wXET149F52
     K23T05F  C2023 10 09.39245301 17 47.851+18 07 39.92         21.56wXET149F52
     K23T05F  C2023 10 09.57002001 17 10.744+18 13 12.22         21.77GVET149F52
     K23T05F  C2023 10 09.57083101 17 10.550+18 13 13.71         21.92GVET149F52
     K23T05F KC2023 10 10.19487601 15 05.17 +18 32 48.2          21.6 VuET149H21
     K23T05F KC2023 10 10.20047201 15 04.00 +18 32 58.6          21.5 VuET149H21
     K23T05F KC2023 10 11.17198601 11 40.98 +19 03 46.3          21.5 VuET149H21
     K23T05F KC2023 10 11.17757901 11 39.73 +19 03 56.9          21.5 VuET149H21
     K23T05F KC2023 10 11.18062801 11 39.45 +19 04 03.3          21.2 GXET149858
     K23T05F KC2023 10 11.18317001 11 38.49 +19 04 07.9          21.2 VuET149H21
     K23T05F KC2023 10 11.18549901 11 38.01 +19 04 12.6          21.2 VuET149H21
     K23T05F KC2023 10 11.19554901 11 36.15 +19 04 32.2          21.2 GXET149858
Observer details:
858 Tebbutt Observatory, Edgewood.  Observer F. B. Zoltowski.  0.51-m f/8.1
    Schmidt-Cassegrain + CCD.
F52 Pan-STARRS 2, Haleakala.  Observers J. Bulger, T. Lowe, P. Minguez, A.
    Schultz, I. Smith, K. Chambers, T. Dukes.  Measurers K. Chambers, T. de
    Boer, J. Bulger, J. Fairlamb, H. Gao, M. Huber, C.-C. Lin, T. Lowe, E.
    Magnier, P. Minguez, Y. Ramanjooloo, A. Schultz, I. Smith, R. Wainscoat,
    R. Weryk, S. Chastel.  1.8-m Ritchey-Chretien + CCD.
G96 Mt. Lemmon Survey.  Observer K. W. Wierzchos.  Measurers B. Gray, D.
    Rankin, F. C. Shelly.  1.5-m reflector + 10K CCD.
H21 Astronomical Research Observatory, Westfield.  Observer R. Holmes.
    Measurers T. Linder, R. Holmes, L. Horn.  0.76-m f/3.0 astrograph + CCD.
Orbital elements:
2023 TF5                                                 Earth MOID = 0.0267 AU
Epoch 2023 Sept. 13.0 TT = JDT 2460200.5                Veres                   
M 271.50389              (2000.0)            P               Q                  
n   0.62077243     Peri.  119.01119     -0.63103302     -0.77325263             
a   1.3609675      Node    10.80606     +0.54442751     -0.49861469             
e   0.3397992      Incl.   19.39867     +0.55262647     -0.39174452             
P   1.59           H   22.22          G   0.15           U   9                  
Residuals in seconds of arc
231006 G96  0.4+  0.1-    231009 F52  0.2+  0.0     231011 H21  0.1-  0.3-
231006 G96  0.1-  0.1+    231009 F52  0.4+  0.0     231011 858  0.2-  0.5-
231006 G96  0.3-  0.0     231009 F52  0.1+  0.1-    231011 H21  0.2-  0.1-
231009 F52  0.2+  0.0     231010 H21  0.4-  0.6+    231011 H21  0.3+  0.1+
231009 F52  0.1+  0.1+    231010 H21  0.0   0.3+    231011 858  0.5-  0.4-
231009 F52  0.2+  0.0     231011 H21  0.2+  0.2-
Ephemeris:
2023 TF5                 a,e,i = 1.36, 0.34, 19                  q = 0.8985
Date    TT    R. A. (2000) Decl.     Delta      r    Elong.  Phase     V
2023 09 11    02 06 54.9 +06 38 35   0.6117  1.5057   135.5    27.9    23.3
...
2023 09 26    01 51 22.1 +11 49 10   0.4728  1.4383   152.3    18.9    22.3
...
2023 10 04    01 33 55.1 +15 24 18   0.4139  1.4002   162.1    12.7    21.8
...
2023 10 10    01 15 44.9 +18 26 46   0.3786  1.3707   167.2     9.3    21.4
2023 10 11    01 12 17.1 +18 58 25   0.3735  1.3657   167.5     9.1    21.4
2023 10 12    01 08 42.0 +19 30 19   0.3687  1.3607   167.6     9.1    21.3
...
2023 10 18    00 44 50.9 +22 43 09   0.3451  1.3303   162.9    12.7    21.3
...
2023 10 26    00 08 32.3 +26 45 24   0.3276  1.2889   150.2    22.5    21.4
...
2023 11 10    23 01 21.1 +32 16 26   0.3304  1.2096   124.7    42.3    21.9
M. P. C. Staff               (C) Copyright 2023 MPC           M.P.E.C. 2023-T149
    
    
More information about the Iaude
mailing list